Time,TemperatureF,DewpointF,PressureIn,WindDirection,WindDirectionDegrees,WindSpeedMPH,WindSpeedGustMPH,Humidity,HourlyPrecipIn,Conditions,Clouds,dailyrainin,SoftwareType,DateUTC
2013-02-17 00:07:00,23.4,12.0,28.07,South,183,0.0,5.0,61,0.00,,,0.00,weatherlink.com 1.10,2013-02-17 05:07:00,
2013-02-17 00:22:00,22.5,12.0,28.08,South,176,0.0,2.0,63,0.00,,,0.00,weatherlink.com 1.10,2013-02-17 05:22:00,
2013-02-17 00:37:00,22.7,11.0,28.08,West,278,1.0,5.0,61,0.00,,,0.00,weatherlink.com 1.10,2013-02-17 05:37:00,
2013-02-17 00:52:00,22.8,12.0,28.08,WSW,256,0.0,2.0,64,0.00,,,0.00,weatherlink.com 1.10,2013-02-17 05:52:00,
2013-02-17 01:07:00,22.6,13.0,28.08,SW,235,0.0,2.0,67,0.00,,,0.00,weatherlink.com 1.10,2013-02-17 06:07:00,
2013-02-17 01:22:00,22.5,15.0,28.08,SE,136,0.0,2.0,74,0.00,,,0.00,weatherlink.com 1.10,2013-02-17 06:22:00,
2013-02-17 01:37:00,22.0,17.0,28.08,SSE,150,0.0,1.0,80,0.00,,,0.00,weatherlink.com 1.10,2013-02-17 06:37:00,
2013-02-17 01:52:00,21.6,17.0,28.08,East,100,2.0,2.0,82,0.00,,,0.00,weatherlink.com 1.10,2013-02-17 06:52:00,
2013-02-17 02:07:00,21.3,18.0,28.09,SE,139,1.0,2.0,85,0.00,,,0.00,weatherlink.com 1.10,2013-02-17 07:07:00,
2013-02-17 02:22:00,21.1,18.0,28.09,SE,146,1.0,1.0,86,0.00,,,0.00,weatherlink.com 1.10,2013-02-17 07:22:00,
2013-02-17 02:37:00,21.1,17.0,28.09,SSE,152,0.0,3.0,83,0.00,,,0.00,weatherlink.com 1.10,2013-02-17 07:37:00,
2013-02-17 02:52:00,21.0,16.0,28.09,SSE,154,0.0,4.0,80,0.00,,,0.00,weatherlink.com 1.10,2013-02-17 07:52:00,
2013-02-17 03:07:00,20.8,14.0,28.09,SSW,193,0.0,13.0,74,0.00,,,0.00,weatherlink.com 1.10,2013-02-17 08:07:00,
2013-02-17 03:22:00,20.2,13.0,28.09,NNW,347,0.0,0.0,75,0.00,,,0.00,weatherlink.com 1.10,2013-02-17 08:22:00,
2013-02-17 03:37:00,19.8,12.0,28.09,South,184,5.0,9.0,73,0.00,,,0.00,weatherlink.com 1.10,2013-02-17 08:37:00,
2013-02-17 03:52:00,19.2,14.0,28.10,SSW,212,3.0,8.0,79,0.00,,,0.00,weatherlink.com 1.10,2013-02-17 08:52:00,
2013-02-17 04:07:00,18.5,13.0,28.10,SSW,193,4.0,7.0,80,0.00,,,0.00,weatherlink.com 1.10,2013-02-17 09:07:00,
2013-02-17 04:22:00,17.8,12.0,28.11,SSW,200,0.0,4.0,79,0.00,,,0.00,weatherlink.com 1.10,2013-02-17 09:22:00,
2013-02-17 04:37:00,17.2,12.0,28.11,SW,227,0.0,2.0,80,0.00,,,0.00,weatherlink.com 1.10,2013-02-17 09:37:00,
2013-02-17 04:53:00,17.2,11.0,28.11,SSE,152,1.0,4.0,77,0.00,,,0.00,weatherlink.com 1.10,2013-02-17 09:53:00,
2013-02-17 05:08:00,17.4,12.0,28.11,South,177,0.0,3.0,80,0.00,,,0.00,weatherlink.com 1.10,2013-02-17 10:08:00,
2013-02-17 05:23:00,17.2,13.0,28.11,SSW,193,3.0,4.0,82,0.00,,,0.00,weatherlink.com 1.10,2013-02-17 10:23:00,
2013-02-17 05:38:00,17.0,13.0,28.12,South,191,0.0,1.0,84,0.00,,,0.00,weatherlink.com 1.10,2013-02-17 10:38:00,
2013-02-17 05:53:00,17.0,13.0,28.12,SSE,166,0.0,9.0,83,0.00,,,0.00,weatherlink.com 1.10,2013-02-17 10:53:00,
2013-02-17 06:08:00,17.1,13.0,28.12,WSW,240,0.0,1.0,84,0.00,,,0.00,weatherlink.com 1.10,2013-02-17 11:08:00,
2013-02-17 06:23:00,16.8,13.0,28.13,South,180,0.0,7.0,83,0.00,,,0.00,weatherlink.com 1.10,2013-02-17 11:23:00,
2013-02-17 06:38:00,16.3,12.0,28.14,SE,127,1.0,5.0,83,0.00,,,0.00,weatherlink.com 1.10,2013-02-17 11:38:00,
2013-02-17 06:53:00,16.4,9.0,28.14,SSE,161,0.0,5.0,72,0.00,,,0.00,weatherlink.com 1.10,2013-02-17 11:53:00,
2013-02-17 07:08:00,16.2,10.0,28.15,West,266,1.0,7.0,76,0.00,,,0.00,weatherlink.com 1.10,2013-02-17 12:08:00,
2013-02-17 07:23:00,16.0,10.0,28.16,SSE,150,0.0,4.0,77,0.00,,,0.00,weatherlink.com 1.10,2013-02-17 12:23:00,
2013-02-17 07:38:00,15.9,9.0,28.16,SE,134,0.0,4.0,73,0.00,,,0.00,weatherlink.com 1.10,2013-02-17 12:38:00,
2013-02-17 07:53:00,16.0,8.0,28.18,SE,132,3.0,5.0,70,0.00,,,0.00,weatherlink.com 1.10,2013-02-17 12:53:00,
2013-02-17 08:08:00,16.0,6.0,28.18,ENE,77,0.0,3.0,66,0.00,,,0.00,weatherlink.com 1.10,2013-02-17 13:08:00,
2013-02-17 08:23:00,16.2,7.0,28.19,NNW,344,0.0,8.0,66,0.00,,,0.00,weatherlink.com 1.10,2013-02-17 13:23:00,
2013-02-17 08:38:00,15.8,6.0,28.20,South,188,0.0,4.0,64,0.00,,,0.00,weatherlink.com 1.10,2013-02-17 13:38:00,
2013-02-17 08:53:00,15.8,5.0,28.20,SSW,193,0.0,6.0,63,0.00,,,0.00,weatherlink.com 1.10,2013-02-17 13:53:00,
2013-02-17 09:08:00,15.9,5.0,28.21,SSW,205,2.0,8.0,62,0.00,,,0.00,weatherlink.com 1.10,2013-02-17 14:08:00,
2013-02-17 09:23:00,15.6,3.0,28.21,SSW,195,0.0,14.0,57,0.00,,,0.00,weatherlink.com 1.10,2013-02-17 14:23:00,
2013-02-17 09:38:00,16.8,4.0,28.22,WNW,302,1.0,6.0,58,0.00,,,0.00,weatherlink.com 1.10,2013-02-17 14:38:00,
2013-02-17 09:53:00,17.8,6.0,28.22,ENE,74,2.0,9.0,61,0.00,,,0.00,weatherlink.com 1.10,2013-02-17 14:53:00,
2013-02-17 10:08:00,17.9,5.0,28.22,WSW,240,0.0,8.0,57,0.00,,,0.00,weatherlink.com 1.10,2013-02-17 15:08:00,
2013-02-17 10:23:00,18.5,5.0,28.23,ENE,72,4.0,5.0,55,0.00,,,0.00,weatherlink.com 1.10,2013-02-17 15:23:00,
2013-02-17 10:38:00,19.4,6.0,28.23,ENE,64,4.0,12.0,56,0.00,,,0.00,weatherlink.com 1.10,2013-02-17 15:38:00,
2013-02-17 10:53:00,20.3,6.0,28.24,WSW,240,6.0,10.0,55,0.00,,,0.00,weatherlink.com 1.10,2013-02-17 15:53:00,
2013-02-17 11:08:00,20.4,8.0,28.24,South,184,3.0,13.0,58,0.00,,,0.00,weatherlink.com 1.10,2013-02-17 16:08:00,
2013-02-17 11:23:00,21.6,8.0,28.25,South,183,1.0,11.0,57,0.00,,,0.00,weatherlink.com 1.10,2013-02-17 16:23:00,
2013-02-17 11:38:00,21.7,6.0,28.25,West,264,1.0,8.0,52,0.00,,,0.00,weatherlink.com 1.10,2013-02-17 16:38:00,
2013-02-17 12:08:00,20.9,7.0,28.25,SSW,207,0.0,10.0,55,0.00,,,0.00,weatherlink.com 1.10,2013-02-17 17:08:00,
2013-02-17 12:23:00,21.2,7.0,28.25,WSW,252,3.0,8.0,54,0.00,,,0.00,weatherlink.com 1.10,2013-02-17 17:23:00,
2013-02-17 12:38:00,20.4,5.0,28.25,West,267,5.0,7.0,51,0.00,,,0.00,weatherlink.com 1.10,2013-02-17 17:38:00,
2013-02-17 12:53:00,20.1,7.0,28.24,ENE,60,0.0,9.0,57,0.00,,,0.00,weatherlink.com 1.10,2013-02-17 17:53:00,
2013-02-17 13:09:00,20.5,7.0,28.24,West,280,3.0,7.0,55,0.00,,,0.00,weatherlink.com 1.10,2013-02-17 18:09:00,
2013-02-17 13:24:00,20.6,7.0,28.24,SSW,207,2.0,8.0,55,0.00,,,0.00,weatherlink.com 1.10,2013-02-17 18:24:00,
2013-02-17 13:39:00,21.1,7.0,28.24,WSW,238,5.0,10.0,54,0.00,,,0.00,weatherlink.com 1.10,2013-02-17 18:39:00,
2013-02-17 13:54:00,21.1,7.0,28.24,NW,315,6.0,7.0,55,0.00,,,0.00,weatherlink.com 1.10,2013-02-17 18:54:00,
2013-02-17 14:09:00,21.1,8.0,28.25,ESE,105,1.0,6.0,58,0.00,,,0.00,weatherlink.com 1.10,2013-02-17 19:09:00,
2013-02-17 14:24:00,21.2,7.0,28.24,SW,228,6.0,9.0,55,0.00,,,0.00,weatherlink.com 1.10,2013-02-17 19:24:00,
2013-02-17 14:39:00,21.2,6.0,28.25,SSW,210,0.0,8.0,52,0.00,,,0.00,weatherlink.com 1.10,2013-02-17 19:39:00,
2013-02-17 14:54:00,22.4,7.0,28.24,SSW,204,0.0,16.0,52,0.00,,,0.00,weatherlink.com 1.10,2013-02-17 19:54:00,
2013-02-17 15:09:00,22.0,7.0,28.25,ESE,110,4.0,7.0,52,0.00,,,0.00,weatherlink.com 1.10,2013-02-17 20:09:00,
2013-02-17 15:24:00,22.7,7.0,28.25,South,176,0.0,9.0,51,0.00,,,0.00,weatherlink.com 1.10,2013-02-17 20:24:00,
2013-02-17 15:39:00,23.0,6.0,28.26,NNW,339,2.0,13.0,49,0.00,,,0.00,weatherlink.com 1.10,2013-02-17 20:39:00,
2013-02-17 15:54:00,21.9,5.0,28.26,SSE,153,0.0,9.0,48,0.00,,,0.00,weatherlink.com 1.10,2013-02-17 20:54:00,
2013-02-17 16:09:00,21.6,6.0,28.26,NE,52,0.0,18.0,51,0.00,,,0.00,weatherlink.com 1.10,2013-02-17 21:09:00,
2013-02-17 16:24:00,20.7,4.0,28.27,South,177,0.0,10.0,49,0.00,,,0.00,weatherlink.com 1.10,2013-02-17 21:24:00,
2013-02-17 16:39:00,20.4,4.0,28.27,SSW,200,1.0,9.0,49,0.00,,,0.00,weatherlink.com 1.10,2013-02-17 21:39:00,
2013-02-17 16:54:00,19.8,4.0,28.27,ESE,120,5.0,7.0,51,0.00,,,0.00,weatherlink.com 1.10,2013-02-17 21:54:00,
2013-02-17 17:09:00,19.7,4.0,28.28,SW,235,0.0,6.0,51,0.00,,,0.00,weatherlink.com 1.10,2013-02-17 22:09:00,
2013-02-17 17:24:00,19.3,4.0,28.28,NNW,343,0.0,18.0,52,0.00,,,0.00,weatherlink.com 1.10,2013-02-17 22:24:00,
2013-02-17 17:39:00,19.1,5.0,28.29,SW,226,1.0,5.0,54,0.00,,,0.00,weatherlink.com 1.10,2013-02-17 22:39:00,
2013-02-17 17:54:00,18.7,5.0,28.30,SW,215,0.0,6.0,56,0.00,,,0.00,weatherlink.com 1.10,2013-02-17 22:54:00,
2013-02-17 18:09:00,18.6,5.0,28.31,East,92,0.0,7.0,56,0.00,,,0.00,weatherlink.com 1.10,2013-02-17 23:09:00,
2013-02-17 18:24:00,18.6,5.0,28.31,WSW,243,3.0,9.0,56,0.00,,,0.00,weatherlink.com 1.10,2013-02-17 23:24:00,
2013-02-17 18:39:00,18.7,5.0,28.32,ENE,77,0.0,8.0,56,0.00,,,0.00,weatherlink.com 1.10,2013-02-17 23:39:00,
2013-02-17 18:54:00,18.6,5.0,28.33,SW,219,0.0,7.0,56,0.00,,,0.00,weatherlink.com 1.10,2013-02-17 23:54:00,
2013-02-17 19:09:00,18.5,5.0,28.34,ESE,113,3.0,10.0,56,0.00,,,0.00,weatherlink.com 1.10,2013-02-18 00:09:00,
2013-02-17 19:24:00,18.6,5.0,28.34,NW,309,0.0,3.0,56,0.00,,,0.00,weatherlink.com 1.10,2013-02-18 00:24:00,
2013-02-17 19:39:00,18.5,5.0,28.34,SW,228,1.0,6.0,56,0.00,,,0.00,weatherlink.com 1.10,2013-02-18 00:39:00,
2013-02-17 19:54:00,18.3,5.0,28.34,ESE,122,1.0,5.0,57,0.00,,,0.00,weatherlink.com 1.10,2013-02-18 00:54:00,
2013-02-17 20:09:00,18.5,4.0,28.35,ENE,77,2.0,12.0,54,0.00,,,0.00,weatherlink.com 1.10,2013-02-18 01:09:00,
2013-02-17 20:24:00,18.3,5.0,28.35,NE,43,1.0,3.0,57,0.00,,,0.00,weatherlink.com 1.10,2013-02-18 01:24:00,
2013-02-17 20:39:00,18.2,5.0,28.35,SSW,212,4.0,6.0,56,0.00,,,0.00,weatherlink.com 1.10,2013-02-18 01:39:00,
2013-02-17 20:54:00,18.3,5.0,28.36,NE,56,2.0,6.0,56,0.00,,,0.00,weatherlink.com 1.10,2013-02-18 01:54:00,
2013-02-17 21:09:00,18.5,5.0,28.36,SSW,204,2.0,7.0,56,0.00,,,0.00,weatherlink.com 1.10,2013-02-18 02:09:00,
2013-02-17 21:24:00,18.6,5.0,28.37,SW,222,0.0,4.0,56,0.00,,,0.00,weatherlink.com 1.10,2013-02-18 02:24:00,
2013-02-17 21:39:00,18.7,5.0,28.37,NE,41,0.0,8.0,55,0.00,,,0.00,weatherlink.com 1.10,2013-02-18 02:39:00,
2013-02-17 21:54:00,18.6,6.0,28.37,NNE,32,1.0,4.0,57,0.00,,,0.00,weatherlink.com 1.10,2013-02-18 02:54:00,
2013-02-17 22:09:00,18.8,6.0,28.37,West,270,1.0,4.0,57,0.00,,,0.00,weatherlink.com 1.10,2013-02-18 03:09:00,
2013-02-17 22:24:00,19.2,6.0,28.37,SSE,164,0.0,7.0,56,0.00,,,0.00,weatherlink.com 1.10,2013-02-18 03:24:00,
2013-02-17 22:39:00,19.1,6.0,28.37,SW,228,0.0,6.0,57,0.00,,,0.00,weatherlink.com 1.10,2013-02-18 03:39:00,
2013-02-17 22:55:00,18.7,5.0,28.38,SW,215,0.0,2.0,56,0.00,,,0.00,weatherlink.com 1.10,2013-02-18 03:55:00,
2013-02-17 23:10:00,18.7,6.0,28.38,SSW,201,1.0,8.0,59,0.00,,,0.00,weatherlink.com 1.10,2013-02-18 04:10:00,
2013-02-17 23:25:00,18.3,7.0,28.38,SW,224,1.0,7.0,61,0.00,,,0.00,weatherlink.com 1.10,2013-02-18 04:25:00,
2013-02-17 23:40:00,18.3,7.0,28.39,SW,225,0.0,2.0,61,0.00,,,0.00,weatherlink.com 1.10,2013-02-18 04:40:00,
2013-02-17 23:55:00,16.5,7.0,28.39,SW,225,0.0,1.0,67,0.00,,,0.00,weatherlink.com 1.10,2013-02-18 04:55:00,